| time (UTC) | temp C | wind direction | speed KPH | gust KPH | rain 1hr cm | rain 24hr cm | rain mn cm | humidity % | barometer mb |
| 20260504001516 | 10 | 238 | 3.2 | 12.9 | 0.00 | 0.00 | 0.00 | 77 | 1008.0 |
| 20260504000016 | 10 | 235 | 3.2 | 16.1 | 0.00 | 0.00 | 0.00 | 78 | 1008.0 |
| 20260503234526 | 10 | 236 | 3.2 | 19.3 | 0.00 | 0.00 | 0.00 | 77 | 1008.2 |
| 20260503233012 | 10 | 229 | 3.2 | 20.9 | 0.00 | 0.00 | 0.00 | 77 | 1008.4 |
| 20260503231511 | 10 | 177 | 3.2 | 16.1 | 0.00 | 0.00 | 0.00 | 77 | 1008.5 |
| 20260503230015 | 10 | 228 | 4.8 | 16.1 | 0.00 | 0.00 | 0.00 | 78 | 1008.7 |
| 20260503224513 | 10 | 221 | 4.8 | 19.3 | 0.00 | 0.00 | 0.00 | 78 | 1008.7 |
| 20260503223010 | 10 | 262 | 6.4 | 25.7 | 0.00 | 0.00 | 0.00 | 78 | 1009.0 |
| 20260503221509 | 10 | 274 | 8.0 | 27.4 | 0.00 | 0.00 | 0.00 | 79 | 1009.1 |
| 20260503220024 | 10 | 199 | 6.4 | 25.7 | 0.00 | 0.00 | 0.00 | 78 | 1009.1 |
| 20260503214508 | 10 | 205 | 4.8 | 17.7 | 0.00 | 0.00 | 0.00 | 78 | 1009.2 |
| 20260503213009 | 10 | 240 | 4.8 | 27.4 | 0.00 | 0.00 | 0.00 | 78 | 1009.4 |
| 20260503211506 | 10 | 229 | 3.2 | 17.7 | 0.00 | 0.00 | 0.00 | 77 | 1009.3 |
| 20260503210006 | 10 | 277 | 4.8 | 33.8 | 0.00 | 0.00 | 0.00 | 74 | 1009.4 |
| 20260503204506 | 11 | 254 | 4.8 | 30.6 | 0.00 | 0.00 | 0.00 | 70 | 1009.4 |
| 20260503203003 | 12 | 240 | 6.4 | 40.2 | 0.00 | 0.00 | 0.00 | 58 | 1009.1 |
| 20260503201559 | 13 | 245 | 3.2 | 30.6 | 0.00 | 0.00 | 0.00 | 53 | 1009.0 |
| 20260503200104 | 14 | 246 | 3.2 | 30.6 | 0.00 | 0.00 | 0.00 | 45 | 1008.6 |
| 20260503194555 | 14 | 182 | 1.6 | 24.1 | 0.00 | 0.00 | 0.00 | 42 | 1008.5 |
| 20260503193103 | 15 | 273 | 3.2 | 20.9 | 0.00 | 0.00 | 0.00 | 40 | 1008.7 |
| 20260503191556 | 15 | 240 | 3.2 | 17.7 | 0.00 | 0.00 | 0.00 | 41 | 1008.7 |
| 20260503190054 | 15 | 249 | 3.2 | 16.1 | 0.00 | 0.00 | 0.00 | 39 | 1008.9 |
| 20260503184604 | 14 | 264 | 1.6 | 17.7 | 0.00 | 0.00 | 0.00 | 40 | 1009.4 |
| 20260503183057 | 15 | 242 | 3.2 | 20.9 | 0.00 | 0.00 | 0.00 | 39 | 1009.6 |
| 20260503181545 | 15 | 246 | 4.8 | 16.1 | 0.00 | 0.00 | 0.00 | 38 | 1009.7 |
| 20260503180044 | 15 | 207 | 3.2 | 19.3 | 0.00 | 0.00 | 0.00 | 39 | 1010.0 |
| 20260503174541 | 15 | 187 | 3.2 | 24.1 | 0.00 | 0.00 | 0.00 | 39 | 1010.3 |
| 20260503173037 | 15 | 216 | 6.4 | 27.4 | 0.00 | 0.00 | 0.00 | 39 | 1010.7 |
| 20260503171533 | 14 | 210 | 4.8 | 17.7 | 0.00 | 0.00 | 0.00 | 41 | 1010.9 |
| 20260503081622 | -2 | 281 | 0.0 | 0.0 | 0.00 | 0.00 | 0.00 | 74 | 1014.4 |
| 20260503080110 | -1 | 281 | 0.0 | 0.0 | 0.00 | 0.00 | 0.00 | 72 | 1014.4 |
| 20260503071551 | -1 | 281 | 0.0 | 1.6 | 0.00 | 0.00 | 0.00 | 74 | 1014.5 |
| 20260503054543 | 0 | 276 | 0.0 | 0.0 | 0.00 | 0.00 | 0.00 | 66 | 1015.1 |
| 20260503053033 | 0 | 276 | 0.0 | 1.6 | 0.00 | 0.00 | 0.00 | 64 | 1015.1 |
| 20260503051528 | 1 | 276 | 0.0 | 0.0 | 0.00 | 0.00 | 0.00 | 61 | 1015.1 |
| 20260503050035 | 1 | 276 | 0.0 | 1.6 | 0.00 | 0.00 | 0.00 | 60 | 1015.2 |
| 20260503044522 | 1 | 269 | 0.0 | 3.2 | 0.00 | 0.00 | 0.00 | 59 | 1015.2 |
| 20260503043019 | 1 | 269 | 0.0 | 4.8 | 0.00 | 0.00 | 0.00 | 58 | 1015.3 |
| 20260503041514 | 2 | 273 | 0.0 | 3.2 | 0.00 | 0.00 | 0.00 | 57 | 1015.3 |
| 20260503040011 | 2 | 265 | 0.0 | 3.2 | 0.00 | 0.00 | 0.00 | 57 | 1015.4 |
| 20260503034511 | 2 | 262 | 0.0 | 3.2 | 0.00 | 0.00 | 0.00 | 56 | 1015.4 |
| 20260503033012 | 2 | 277 | 0.0 | 3.2 | 0.00 | 0.00 | 0.00 | 55 | 1015.4 |
| 20260503031510 | 2 | 259 | 0.0 | 3.2 | 0.00 | 0.00 | 0.00 | 56 | 1015.4 |
| 20260503030009 | 2 | 277 | 0.0 | 6.4 | 0.00 | 0.00 | 0.00 | 57 | 1015.5 |
| 20260503024510 | 2 | 259 | 0.0 | 4.8 | 0.00 | 0.00 | 0.00 | 60 | 1015.6 |
| 20260503023008 | 1 | 249 | 0.0 | 3.2 | 0.00 | 0.00 | 0.00 | 61 | 1015.6 |
| 20260503021509 | 2 | 264 | 0.0 | 1.6 | 0.00 | 0.00 | 0.00 | 61 | 1015.7 |
| 20260503020008 | 2 | 264 | 0.0 | 1.6 | 0.00 | 0.00 | 0.00 | 60 | 1015.6 |
| 20260503014509 | 3 | 262 | 0.0 | 1.6 | 0.00 | 0.00 | 0.00 | 59 | 1015.6 |
| 20260503013019 | 3 | 261 | 0.0 | 3.2 | 0.00 | 0.00 | 0.00 | 57 | 1015.5 |
| 20260503011506 | 3 | 263 | 0.0 | 1.6 | 0.00 | 0.00 | 0.00 | 56 | 1015.5 |
| 20260503010005 | 4 | 254 | 0.0 | 4.8 | 0.00 | 0.00 | 0.00 | 53 | 1015.4 |
| 20260503004505 | 5 | 253 | 0.0 | 4.8 | 0.00 | 0.00 | 0.00 | 52 | 1015.2 |
| 20260503003004 | 5 | 261 | 0.0 | 11.3 | 0.00 | 0.00 | 0.00 | 50 | 1015.2 |